FW4435 Weather Reports


time (UTC)temp
C
wind
direction
speed
KPH
gust
KPH
rain 1hr
cm
rain 24hr
cm
rain mn
cm
humidity
%
barometer
mb
20260504150722 12 286 24.1 30.6 0.00 0.03 0.03 56 1006.4
20260504150219 12 252 14.5 16.1 0.00 0.03 0.03 55 1006.8
20260504141148 12 224 3.2 3.2 0.00 0.03 0.03 55 1006.8
20260504140645 12 286 25.7 30.6 0.00 0.03 0.03 54 1006.8
20260504140140 12 274 16.1 20.9 0.00 0.03 0.03 55 1006.8
20260504130609 11 148 6.4 6.4 0.00 0.03 0.03 59 1006.8
20260504130105 11 193 6.4 6.4 0.00 0.03 0.03 60 1006.8
20260504110456 7 188 3.2 4.8 0.00 0.03 0.03 77 1007.4
20260504100419 7 237 6.4 6.4 0.00 0.03 0.03 77 1007.4
20260504081812 6 188 3.2 3.2 0.00 0.03 0.03 80 1007.4
20260504081309 7 243 9.7 11.3 0.00 0.03 0.03 79 1007.4
20260504080804 7 212 4.8 6.4 0.00 0.03 0.03 78 1007.8
20260504080301 7 215 12.9 14.5 0.00 0.03 0.03 78 1007.8
20260504070229 6 244 6.4 6.4 0.00 0.03 0.03 76 1007.8
20260504060149 5 208 6.4 6.4 0.00 0.00 0.00 71 1007.8
20260504050618 6 247 19.3 22.5 0.00 0.00 0.00 61 1008.1
20260504050115 6 210 22.5 25.7 0.00 0.00 0.00 59 1008.1
20260504045612 6 258 9.7 11.3 0.00 0.00 0.00 52 1008.1
20260504045106 6 226 6.4 6.4 0.00 0.00 0.00 52 1008.1
20260504044605 6 215 8.0 9.7 0.00 0.00 0.00 52 1008.1
20260504044101 6 223 12.9 16.1 0.00 0.00 0.00 52 1008.6
20260504043558 6 224 11.3 12.9 0.00 0.00 0.00 51 1008.1
20260504043055 6 213 8.0 11.3 0.00 0.00 0.00 51 1008.6
20260504042552 6 234 9.7 11.3 0.00 0.00 0.00 52 1008.6
20260504042049 6 230 9.7 11.3 0.00 0.00 0.00 51 1008.1
20260504041545 6 191 3.2 4.8 0.00 0.00 0.00 52 1008.6
20260504041041 6 190 8.0 9.7 0.00 0.00 0.00 51 1008.1
20260504040539 6 180 6.4 6.4 0.00 0.00 0.00 52 1008.1
20260504040035 6 190 8.0 9.7 0.00 0.00 0.00 51 1008.1
20260504035532 5 190 14.5 14.5 0.00 0.00 0.00 53 1008.1
20260504035029 5 203 6.4 6.4 0.00 0.00 0.00 53 1008.1
20260504034527 3 193 4.8 4.8 0.00 0.00 0.00 57 1008.1
20260504034023 3 216 4.8 4.8 0.00 0.00 0.00 59 1008.1
20260504033521 3 200 4.8 4.8 0.00 0.00 0.00 58 1008.1
20260504033018 5 186 6.4 6.4 0.00 0.00 0.00 55 1008.1
20260504032515 5 189 6.4 6.4 0.00 0.00 0.00 51 1007.8
20260504032012 5 197 8.0 9.7 0.00 0.00 0.00 51 1008.1
20260504031509 6 226 9.7 11.3 0.00 0.00 0.00 51 1008.1
20260504031005 5 192 8.0 9.7 0.00 0.00 0.00 53 1008.1
20260504030503 6 200 6.4 6.4 0.00 0.00 0.00 50 1008.1
20260504025958 5 202 9.7 11.3 0.00 0.00 0.00 52 1008.1
20260504025455 5 191 8.0 9.7 0.00 0.00 0.00 54 1008.1
20260504024952 5 203 6.4 6.4 0.00 0.00 0.00 55 1008.1
20260504024449 4 193 6.4 6.4 0.00 0.00 0.00 58 1008.1
20260504023946 4 216 9.7 9.7 0.00 0.00 0.00 58 1008.1
20260504023443 4 212 8.0 9.7 0.00 0.00 0.00 58 1008.1
20260504022938 4 215 8.0 9.7 0.00 0.00 0.00 57 1007.8
20260504022435 5 183 4.8 4.8 0.00 0.00 0.00 54 1008.6
20260504021932 5 181 6.4 6.4 0.00 0.00 0.00 55 1008.1
20260504021429 5 193 6.4 6.4 0.00 0.00 0.00 56 1008.1
20260504020926 5 198 6.4 6.4 0.00 0.00 0.00 55 1008.1
20260504020423 5 185 4.8 4.8 0.00 0.00 0.00 54 1008.6
20260504015919 6 193 6.4 6.4 0.00 0.00 0.00 55 1008.6
20260504015415 6 221 6.4 6.4 0.00 0.00 0.00 54 1008.6
20260504014912 5 199 4.8 6.4 0.00 0.00 0.00 54 1008.1
20260504014408 5 197 6.4 6.4 0.00 0.00 0.00 54 1008.6
20260504013905 6 201 6.4 6.4 0.00 0.00 0.00 54 1008.1
20260504013403 6 201 6.4 6.4 0.00 0.00 0.00 54 1008.1
20260504012859 5 213 6.4 6.4 0.00 0.00 0.00 55 1008.1
20260504012357 5 184 4.8 4.8 0.00 0.00 0.00 55 1008.1
20260504011854 5 191 3.2 4.8 0.00 0.00 0.00 56 1007.8
20260504011351 5 181 1.6 3.2 0.00 0.00 0.00 59 1007.8
20260504010847 5 164 3.2 3.2 0.00 0.00 0.00 58 1007.8
20260504010342 6 186 3.2 3.2 0.00 0.00 0.00 56 1007.8
20260504005839 6 178 1.6 3.2 0.00 0.00 0.00 53 1007.8
20260504005336 6 241 3.2 3.2 0.00 0.00 0.00 53 1007.8
20260504004833 6 282 8.0 9.7 0.00 0.00 0.00 53 1007.4
20260504004331 6 223 4.8 4.8 0.00 0.00 0.00 53 1007.4
20260504003827 5 255 3.2 3.2 0.00 0.00 0.00 54 1007.4
20260504003324 5 177 3.2 3.2 0.00 0.00 0.00 57 1007.8
20260504002821 6 193 3.2 4.8 0.00 0.00 0.00 54 1007.4
20260504002318 5 194 4.8 4.8 0.00 0.00 0.00 55 1007.4
20260504001815 5 147 0.0 0.0 0.00 0.00 0.00 57 1007.4
20260504001313 5 158 0.0 0.0 0.00 0.00 0.00 57 1007.4
20260504000809 5 162 3.2 3.2 0.00 0.00 0.00 56 1007.4
20260504000306 5 153 1.6 1.6 0.00 0.00 0.00 56 1007.4
20260503235804 6 146 1.6 1.6 0.00 0.00 0.00 54 1007.4
20260503235301 6 143 0.0 0.0 0.00 0.00 0.00 52 1007.1
20260503234759 6 153 0.0 0.0 0.00 0.00 0.00 53 1007.1
20260503234257 7 177 1.6 1.6 0.00 0.00 0.00 52 1007.4
20260503233754 6 288 6.4 6.4 0.00 0.00 0.00 52 1007.1
20260503233249 7 261 6.4 6.4 0.00 0.00 0.00 52 1007.1
20260503232747 7 165 3.2 4.8 0.00 0.00 0.00 51 1007.1
20260503232244 7 193 1.6 1.6 0.00 0.00 0.00 52 1007.1
20260503231742 7 246 1.6 1.6 0.00 0.00 0.00 51 1007.1
20260503231239 7 230 6.4 6.4 0.00 0.00 0.00 50 1007.1
20260503230734 7 273 9.7 12.9 0.00 0.00 0.00 51 1007.1
20260503230232 7 327 6.4 11.3 0.00 0.00 0.00 50 1007.1
20260503225729 7 207 3.2 3.2 0.00 0.00 0.00 52 1007.1
20260503225229 7 254 8.0 12.9 0.00 0.00 0.00 50 1007.1
20260503224726 7 72 1.6 1.6 0.00 0.00 0.00 52 1007.1
20260503224224 7 251 3.2 4.8 0.00 0.00 0.00 51 1006.8
20260503223722 8 169 1.6 3.2 0.00 0.00 0.00 51 1007.1
20260503223219 7 150 3.2 4.8 0.00 0.00 0.00 51 1007.1
20260503222715 8 280 12.9 16.1 0.00 0.00 0.00 49 1007.1
20260503222213 8 245 4.8 4.8 0.00 0.00 0.00 50 1007.4
20260503221712 8 91 3.2 4.8 0.00 0.00 0.00 52 1007.1
20260503221209 7 36 6.4 9.7 0.00 0.00 0.00 51 1007.1
20260503220705 7 284 6.4 9.7 0.00 0.00 0.00 50 1007.1
20260503220202 7 277 8.0 9.7 0.00 0.00 0.00 50 1006.8
20260503215659 7 279 8.0 9.7 0.00 0.00 0.00 51 1007.1
20260503215155 7 306 3.2 6.4 0.00 0.00 0.00 52 1006.8
20260503214654 7 358 4.8 6.4 0.00 0.00 0.00 52 1006.8
20260503214149 7 259 9.7 14.5 0.00 0.00 0.00 52 1007.1
20260503213644 8 303 6.4 6.4 0.00 0.00 0.00 50 1006.8
20260503213140 7 297 14.5 16.1 0.00 0.00 0.00 50 1006.8
20260503212637 7 271 17.7 25.7 0.00 0.00 0.00 51 1006.8
20260503212134 7 67 3.2 4.8 0.00 0.00 0.00 52 1007.1
20260503211632 7 283 8.0 11.3 0.00 0.00 0.00 52 1006.8
20260503211127 7 153 3.2 3.2 0.00 0.00 0.00 53 1006.8
20260503210624 7 254 4.8 4.8 0.00 0.00 0.00 54 1006.8
20260503210121 7 226 6.4 9.7 0.00 0.00 0.00 54 1007.1
20260503205616 7 229 17.7 22.5 0.00 0.00 0.00 54 1006.8
20260503205113 7 114 12.9 14.5 0.00 0.00 0.00 55 1006.8
20260503204610 7 282 9.7 11.3 0.00 0.00 0.00 55 1006.8
20260503204107 6 301 8.0 11.3 0.00 0.00 0.00 55 1006.8
20260503203604 6 171 3.2 3.2 0.00 0.00 0.00 54 1006.8
20260503203101 6 44 3.2 3.2 0.00 0.00 0.00 55 1007.1
20260503202559 6 282 8.0 11.3 0.00 0.00 0.00 54 1006.8
20260503202057 6 207 4.8 4.8 0.00 0.00 0.00 55 1006.8
20260503201555 6 294 8.0 9.7 0.00 0.00 0.00 54 1007.1
20260503201052 6 244 11.3 12.9 0.00 0.00 0.00 53 1006.8
20260503200548 7 12 6.4 6.4 0.00 0.00 0.00 54 1006.8
20260503200044 7 346 4.8 6.4 0.00 0.00 0.00 53 1006.8
20260503195542 7 324 11.3 14.5 0.00 0.00 0.00 52 1006.8
20260503195038 7 332 11.3 16.1 0.00 0.00 0.00 52 1006.8
20260503194536 7 311 9.7 12.9 0.00 0.00 0.00 52 1006.8
20260503194035 7 186 3.2 6.4 0.00 0.00 0.00 54 1007.1
20260503193532 6 334 3.2 4.8 0.00 0.00 0.00 53 1007.1
20260503193027 6 312 12.9 14.5 0.00 0.00 0.00 52 1007.1
20260503192524 6 329 12.9 16.1 0.00 0.00 0.00 52 1007.4
20260503192020 7 307 19.3 22.5 0.00 0.00 0.00 51 1007.1
20260503191517 7 44 4.8 4.8 0.00 0.00 0.00 53 1007.1
20260503191014 7 140 4.8 9.7 0.00 0.00 0.00 50 1007.1
20260503190511 7 316 14.5 20.9 0.00 0.00 0.00 50 1007.1
20260503190008 7 189 6.4 9.7 0.00 0.00 0.00 49 1007.1
20260503185503 7 270 16.1 20.9 0.00 0.00 0.00 49 1007.1
20260503184958 7 282 1.6 3.2 0.00 0.00 0.00 51 1007.1
20260503184454 7 131 6.4 9.7 0.00 0.00 0.00 50 1007.1
20260503183951 8 293 22.5 25.7 0.00 0.00 0.00 49 1007.1
20260503183448 7 163 1.6 3.2 0.00 0.00 0.00 52 1007.1
20260503182944 7 312 11.3 16.1 0.00 0.00 0.00 50 1007.1
20260503182443 7 358 11.3 16.1 0.00 0.00 0.00 50 1006.8
20260503181940 7 286 16.1 22.5 0.00 0.00 0.00 50 1006.8
20260503181437 7 252 24.1 27.4 0.00 0.00 0.00 49 1007.4
20260503180933 7 245 12.9 17.7 0.00 0.00 0.00 48 1007.1
20260503180432 7 327 14.5 20.9 0.00 0.00 0.00 48 1007.1
20260503175928 7 308 8.0 12.9 0.00 0.00 0.00 49 1007.1
20260503175427 7 333 9.7 14.5 0.00 0.00 0.00 50 1007.1
20260503174922 7 180 19.3 24.1 0.00 0.00 0.00 50 1006.8
20260503174420 7 311 14.5 25.7 0.00 0.00 0.00 49 1007.1
20260503173920 7 24 6.4 9.7 0.00 0.00 0.00 49 1006.8
20260503173417 7 331 9.7 12.9 0.00 0.00 0.00 46 1006.8
20260503172914 7 45 6.4 11.3 0.00 0.00 0.00 46 1006.8
20260503172411 7 253 3.2 4.8 0.00 0.00 0.00 48 1006.8
20260503171907 7 259 6.4 9.7 0.00 0.00 0.00 48 1006.8
20260503171404 8 357 9.7 14.5 0.00 0.00 0.00 48 1006.4
20260503170902 8 31 6.4 9.7 0.00 0.00 0.00 49 1006.4
20260503170358 7 5 9.7 14.5 0.00 0.00 0.00 47 1006.8